Dauntless Aviation
Airports Asia Japan
RJDA
AXJ

Amakusa Airport

Amakusa, JAPAN

Airport Info
Suggest Updated Information for this Airport

Location

Latitude / Longitude: 32°28'57"N / 130°9'32"E
  32°28.95'N / 130°9.54'E
  32.4825 / 130.1590

Nearby radio navigation aids

AKE AMAKUSA VOR/DME on field.

Runway Information

Runway 13 /31

Dimensions: 3281 x 98 ft.
Surface: ASP
 
Runway 13
Runway 31
Latitude: 32.485058 32.479944
Longitude: 130.154486 130.16325
Elevation: 340 ft. 340 ft.
Runway true heading: 124.1 304.1
 

Instrument Procedures

  Aerodrome/Heliport Chart

STARs (Standard Terminal Arrivals)

  STAR - Instrument (IRUKA/ TSUJI - RNAV)

IAPs (Instrument Approach Procedures)

  VOR Rwy 31
  (RNAV (GNSS) Rwy 13)
  (RNAV (GNSS) Rwy 31)
  Other Chart (Visual Rep)
  Other Chart (Ldg Chart)
  Other Chart (MVA Chart)

Departure Procedures

  SID - Instrument (AMAKUSA Reversal)
  SID - Instrument (HABOH - RNAV)
Satellite photo at:
Airport distance calculator
From:
Weather Reports

METAR

RJFU
28.8nm NW
RJFU 020900Z 26005KT 9999 FEW050 BKN/// 27/20 Q1009
RJFT
39.6nm NE
RJFT 020900Z 17004KT 120V200 9999 BKN045 BKN/// 27/20 Q1010

TAF

RJFU
28.8nm NW
TAF RJFU 020510Z 0206/0312 30006KT 9999 FEW030 BECMG 0213/0215 14005KT BECMG 0303/0306 33007KT TEMPO 0303/0306 3000 SHRA BR
RJFT
39.6nm NE
TAF RJFT 020514Z 0206/0312 23005KT 9999 FEW030 SCT045 BECMG 0210/0212 05005KT TEMPO 0306/0309 3000 SHRA BR
Safelog

 

Dauntless Aviation

© 2007-2020 Dauntless Aviation, all rights reserved
Information provided via PilotNav comes from a variety of official and unofficial data sources. As errors are possible, do not use PilotNav for primary flight planning purposes. Verify any information that you receive via PilotNav with current and canonical charts and other official documents. The material in this database is subject to database copyrights held by Dauntless Aviation and may not be copied without the express permission of Dauntless Aviation - licenses for use of part of all of this data are available for purchase; enquire via the Dauntless Aviation helpdesk. A number of mechanisms and markers exist in the database to protect against and identify infringement / copyright. Automated queries against this website are strictly prohibited, and all activity is logged and analyzed.